This demonstration page uses our WeatherBlox Daily Observations layout. Learn more.

41.55636, -103.73856

Hourly Observations for June 7, 2017

Temp ( °F °C ) Dew Point ( °F °C ) Humidity (%) Winds ( mph kmh ) Pressure ( in mb ) Visibility ( mi km ) Precip ( " mm )
12:53 am 00:53 Cloudy 61 16.1 53 11.7 75 75 ENE 3 6 30.09 1019 10 16.0934 0 0
1:53 am 01:53 Mostly Cloudy 60 15.6 53 11.7 78 78 ENE 6 9 30.08 1019 10 16.0934 0 0
2:53 am 02:53 Mostly Cloudy 59 15 53 11.7 81 81 ENE 3 6 30.07 1018 10 16.0934 0 0
3:53 am 03:53 Cloudy 59 15 53 11.7 81 81 E 5 7 30.08 1019 10 16.0934 0 0
4:53 am 04:53 Partly Cloudy 58 14.4 52 11.1 81 81 ESE 6 9 30.07 1018 10 16.0934 0 0
5:53 am 05:53 Mostly Sunny 56 13.3 51 10.6 84 84 E 5 7 30.07 1018 10 16.0934 0 0
6:53 am 06:53 Mostly Sunny 60 15.6 54 12.2 80 80 SE 8 13 30.07 1018 10 16.0934 0 0
7:53 am 07:53 Sunny 64 17.8 55 12.8 73 73 SE 9 15 30.06 1018 10 16.0934 0 0
8:53 am 08:53 Sunny 68 20 55 12.8 63 63 ESE 10 17 30.05 1018 10 16.0934 0 0
9:53 am 09:53 Sunny 72 22.2 57 13.9 59 59 ESE 10 17 30.04 1017 10 16.0934 0 0
10:53 am 10:53 Mostly Sunny 75 23.9 58 14.4 55 55 ESE 7 11 30.03 1017 10 16.0934 0 0
11:53 am 11:53 Mostly Sunny 79 26.1 59 15 50 50 SE 15 24 30.01 1016 10 16.0934 0 0
12:53 pm 12:53 Mostly Sunny 79 26.1 58 14.4 49 49 ESE 15 24 29.99 1016 10 16.0934 0 0.0254
1:13 pm 13:13 Partly Cloudy with Nearby Thunderstorms 82 27.8 59 15 46 46 E 15 24 29.8 1009 10 16.0934 0 0
1:42 pm 13:42 Partly Cloudy 81 27 57 14 45 45 SE 6 9 29.83 1010 10 16.0934 0 0
1:53 pm 13:53 Mostly Sunny 82 27.8 58 14.4 44 44 ESE 10 17 29.96 1015 10 16.0934 0 0
2:06 pm 14:06 Mostly Sunny 82 28 57 14 42 42 SE 16 26 29.8 1009 10 16.0934 0 0
2:53 pm 14:53 Sunny 81 27.2 58 14.4 45 45 SE 21 33 29.95 1014 10 16.0934 0 0
3:53 pm 15:53 Sunny 77 25 58 14.4 52 52 SE 16 26 29.95 1014 10 16.0934 0 0
4:53 pm 16:53 Sunny 77 25 55 12.8 47 47 ESE 20 31 29.93 1014 10 16.0934 0 0
5:53 pm 17:53 Sunny 73 22.8 52 11.1 48 48 ESE 14 22 29.93 1014 10 16.0934 0 0
6:53 pm 18:53 Sunny 72 22.2 56 13.3 57 57 ESE 14 22 29.93 1014 10 16.0934 0 0
7:53 pm 19:53 Sunny 69 20.6 55 12.8 61 61 E 13 20 29.96 1014 10 16.0934 0 0
8:53 pm 20:53 Mostly Cloudy 68 20 55 12.8 63 63 ENE 8 13 29.98 1015 10 16.0934 0 0
9:02 pm 21:02 Mostly Cloudy with Nearby Thunderstorms 66 19 55 13 68 68 NE 10 17 29.97 1015 10 16.0934 0 0
9:22 pm 21:22 Cloudy with Thunderstorms 66 19 55 13 68 68 NNW 8 13 29.97 1015 10 16.0934 0 0
9:36 pm 21:36 Cloudy 66 19 55 13 68 68 WNW 3 6 29.97 1015 10 16.0934 0 0
9:53 pm 21:53 Cloudy with Light Rain 67 19.4 56 13.3 68 68 S 9 15 29.97 1015 10 16.0934 0 0.0254
10:53 pm 22:53 Clear 64 17.8 57 13.9 78 78 SSW 8 13 29.93 1014 10 16.0934 0 0.0254
11:53 pm 23:53 Clear 62 16.7 56 13.3 80 80 ENE 5 7 29.93 1014 10 16.0934 0 0

Powered by AerisWeather